METEOR 2-6 DEB

Satellite information

Favourite Embed

Satellite Type and Status

DEBRISIN ORBIT

Key statistics

Satellite METEOR 2-6 DEB at a glance.

Uptime

16374

Days in orbit

Revolutions

≈ 14.3

Per day

Orbit

LEO

Low Earth Orbit

Inclination

81.2

Latest

Satellite identification and parameters

Extended collection of information and parameters for METEOR 2-6 DEB.

Object identification

Identified? True

Debris? True

Object name: METEOR 2-6 DEB

International designator: 1980-073W

Object number (NORAD): 45502

Object ID (CCSDS): 45502

Country: COMMONWEALTH OF INDEPENDENT STATES (CIS)

Current information (Y/N): Y

RCS size: SMALL

Orbital parameters

Period: 100.415 minutes

Inclination: 81.22 deg

SMA: 7156.39 km

Apoapsis: 802.931 km

Periapsis: 753.579 km

RAAN: 21.8252 deg

Eccentricy: 0.0034481

Argument of periapsis: 246.9536 deg

Mean anomaly: 112.8011 deg

Mean motion: 14.34041685 rev/day

Mean motion (dot): 0.00002496 rev/day2

B* drag term: 0.0008835 1/REarth

Two-line elements (TLE)

Creation date: July 8, 2025, 5:26 p.m.

Reference frame: TEME

Reference center: EARTH

Epoch: July 8, 2025, 5:52 a.m. UTC

TLE line 0: 0 METEOR 2-6 DEB

TLE line 1: 1 45502U 80073W 25189.24483834 .00002496 00000-0 88350-3 0 9993

TLE line 2: 2 45502 81.2200 21.8252 0034481 246.9536 112.8011 14.34041685551311

Live tracking on map

Real-time ground track for satellite METEOR 2-6 DEB.

In-orbit conjunctions

A list of the most updated potential collisions computed for object METEOR 2-6 DEB.

Target Orbit TCA Probability of collision Miss distance Type
CZ-6A DEB SSO 2025-06-25 11:50:56 0.0001045446 117.0 (m) DEBRIS
CZ-6A DEB LEO 2024-12-07 21:41:09 0.0001072522 782.0 (m) DEBRIS

Associated space launch

Second generation soviet meteorological satellite

METEOR 2-6 DEB was lifted into orbit during the mission ‘Vostok 8A92M | Meteor-2 6’, on board a Vostok 8A92M space rocket.

The launch took place on Sept. 9, 1980, 11 a.m. from 43/3 (43L).

For more information about the launch, click the button.

Launch to space Vostok 8A92M | Meteor-2 6
Vostok 8A92M | Meteor-2 6

Agency: N/A

Status: Launch Successful

Launch date: Sept. 9, 1980, 11 a.m. UTC

Rocket: Vostok 8A92M

Launch pad: 43/3 (43L)

Location: Plesetsk Cosmodrome, Russian Federation

...

Latest news about this satellite

There are no fresh news available about this satellite. Check back as we update our databases every day.


Newsletter sign-up

Weekly statistics, charts and insights to help you stay on top of the space industry.